Regional Weather Roundup
Issued by NWS Glasgow, MT

Home | Current Version | Previous Version | Text Only | Print | Product List | Glossary On
Versions: 1 2 3 4 5 6 7 8 9 10 11 12 13 14 15 16 17 18 19 20 21 22 23 24 25 26 27 28 29 30 31 32 33 34 35 36 37 38 39 40 41 42 43 44 45 46 47 48 49 50
000
ASUS45 KGGW 242115
RWRGGW
HOURLY REGIONAL WEATHER ROUNDUP FOR NORTHEAST MONTANA
NATIONAL WEATHER SERVICE GLASGOW MONTANA
300 PM MDT TUE APR 24 2018

NOTE: "FAIR" INDICATES FEW OR NO CLOUDS BELOW 12,000 FEET WITH NO
SIGNIFICANT WEATHER AND/OR OBSTRUCTIONS TO VISISBILITY.

NORTHEAST MONTANA


CITY           SKY/WX    TMP DP  RH WIND       PRES   REMARKS
GLASGOW        SUNNY     63  24  22 S10       30.36F
PLENTYWOOD       N/A     61  19  19 W5          N/A
WOLF POINT     SUNNY     62  24  23 CALM      30.37F
JORDAN           N/A     59  28  30 SW13      30.39F
WINNETT          N/A     58  26  29 S8G20       N/A
SIDNEY         SUNNY     59  28  30 W13       30.39F
GLENDIVE       NOT AVBL
MALTA            N/A     63  23  21 SW10G18     N/A

FORT PECK REPORTS


CITY           SKY/WX    TMP DP  RH WIND       PRES   REMARKS
FORT PECK        N/A     58  25  28 SE7         N/A
THE PINES        N/A     62  19  19 S5          N/A

SOUTHEAST MONTANA


CITY           SKY/WX    TMP DP  RH WIND       PRES   REMARKS
BILLINGS       SUNNY     52  27  38 S7        30.44F
MILES CITY     MOSUNNY   54  31  41 W8        30.43F
BAKER          SUNNY     46  31  55 SW10      30.46F
LIVINGSTON     SUNNY     50  29  44 VRB3      30.41F

CENTRAL MONTANA


CITY           SKY/WX    TMP DP  RH WIND       PRES   REMARKS
HAVRE          SUNNY     65  21  18 SW21G28   30.30F
LEWISTOWN      SUNNY     56  26  31 CALM      30.36F
GREAT FALLS    SUNNY     62  21  20 S18G24    30.33F
CUT BANK       SUNNY     67   9  10 S15G23    30.25F
HELENA         SUNNY     58  30  34 E15G24    30.38F
BUTTE          SUNNY     52  23  32 S12       30.40F
BOZEMAN        SUNNY     52  29  41 N7        30.42F

WESTERN MONTANA


CITY           SKY/WX    TMP DP  RH WIND       PRES   REMARKS
MISSOULA       SUNNY     61  27  27 SE7       30.34F
KALISPELL      NOT AVBL

NORTH DAKOTA


CITY           SKY/WX    TMP DP  RH WIND       PRES   REMARKS
WILLISTON      SUNNY     59  25  27 SW13G20   30.38F
DICKINSON      SUNNY     55  17  22 NW8       30.39F
MINOT          SUNNY     61  18  18 MISG      30.37F
BISMARCK       SUNNY     57  24  28 N8G20     30.40F

SOUTHERN SASKATCHEWAN


CITY           SKY/WX    TMP DP  RH WIND       PRES   REMARKS
REGINA         MOSUNNY   64  21  19 W15G25    30.28F
MOOSE JAW      PTSUNNY   66  25  20 W16G30    30.28F
ESTEVAN        MOSUNNY   59  23  25 SW9G21    30.35F
SWIFT CURRENT  SUNNY     64  25  22 SW21G33   30.24F




USA.gov is the U.S. government's official web portal to all federal, state and local government web resources and services.